CSC3517 ZUCK-ZPJH

Flight info

Callsign CSC3517
Flight time N/A
Altitude 34100
Route NUDVO1Z NUDVO W30 XFA A581 BIDRU BIDRU2C
Aircraft A320/M-SDE3FGHIRWY/LB1

Departure

Time 2026-04-21 13:36
Airport Chongqing Jiangbei International Airport (ZUCK)

Arrival

Time N/A
Airport Xishuangbanna Gasa International Airport (ZPJH)
Time Latitude Longitude Altitude Speed Heading
2026-04-21 13:36 29.83123 106.68059 5025 ft 192 kts 17°
2026-04-21 13:36 29.84397 106.68524 5378 ft 193 kts 17°
2026-04-21 13:37 29.85662 106.68983 5713 ft 194 kts 17°
2026-04-21 13:37 29.86952 106.69447 6050 ft 195 kts 17°
2026-04-21 13:37 29.88248 106.69909 6421 ft 192 kts 17°
2026-04-21 13:37 29.89477 106.70323 7078 ft 176 kts
2026-04-21 13:38 29.90661 106.70133 7550 ft 177 kts 332°
2026-04-21 13:38 29.91434 106.69118 8214 ft 168 kts 293°
2026-04-21 13:38 29.91516 106.67797 8804 ft 171 kts 261°
2026-04-21 13:38 29.91235 106.66378 9100 ft 199 kts 258°
2026-04-21 13:39 29.90904 106.64733 9552 ft 222 kts 259°
2026-04-21 13:39 29.90542 106.62917 9962 ft 243 kts 259°
2026-04-21 13:39 29.90160 106.60971 10477 ft 252 kts 259°
2026-04-21 13:39 29.89774 106.58998 11197 ft 252 kts 259°
2026-04-21 13:40 29.89390 106.57022 11894 ft 253 kts 259°
2026-04-21 13:40 29.89007 106.55037 12573 ft 256 kts 259°
2026-04-21 13:40 29.88619 106.53027 13612 ft 256 kts 258°
2026-04-21 13:40 29.88233 106.51027 14602 ft 257 kts 258°
2026-04-21 13:41 29.87848 106.49034 15535 ft 260 kts 257°
2026-04-21 13:41 29.87453 106.46988 16475 ft 263 kts 257°
2026-04-21 13:41 29.87052 106.44923 17405 ft 266 kts 257°
2026-04-21 13:41 29.86646 106.42834 18328 ft 268 kts 256°
2026-04-21 13:42 29.86233 106.40721 19141 ft 270 kts 256°
2026-04-21 13:42 29.85819 106.38609 19973 ft 271 kts 256°
2026-04-21 13:42 29.85422 106.36578 20752 ft 273 kts 256°
2026-04-21 13:42 29.85001 106.34429 21522 ft 277 kts 256°
2026-04-21 13:43 29.84562 106.32282 22293 ft 280 kts 252°
2026-04-21 13:43 29.83653 106.30304 23025 ft 285 kts 231°
2026-04-21 13:43 29.82096 106.28858 23696 ft 295 kts 210°
2026-04-21 13:43 29.80122 106.28078 24289 ft 304 kts 201°
2026-04-21 13:44 29.78062 106.27397 24749 ft 315 kts 201°
2026-04-21 13:44 29.75889 106.26671 24909 ft 335 kts 201°
2026-04-21 13:44 29.73587 106.25892 25050 ft 355 kts 201°
2026-04-21 13:44 29.71188 106.25078 25193 ft 373 kts 201°
2026-04-21 13:45 29.68635 106.24216 25344 ft 392 kts 199°
2026-04-21 13:45 29.65857 106.23776 25485 ft 417 kts 185°
2026-04-21 13:45 29.62913 106.24190 25827 ft 436 kts 170°
2026-04-21 13:45 29.60045 106.25447 26384 ft 448 kts 157°
2026-04-21 13:46 29.57424 106.27460 26891 ft 461 kts 144°
2026-04-21 13:46 29.55198 106.30128 27396 ft 473 kts 131°
2026-04-21 13:46 29.54133 106.31889 27670 ft 478 kts 126°